Regional Weather Roundup
Issued by NWS

Home | Current Version | Previous Version | Graphics & Text | Print | Product List | Glossary On
Versions: 1 2 3 4 5 6 7 8 9 10 11 12 13 14 15 16 17 18 19 20 21 22 23 24 25 26 27 28 29 30 31 32 33 34 35 36 37 38 39 40 41 42 43 44 45 46 47 48 49 50
000
ASUS44 KMEG 041810
RWRTN
TENNESSEE HOURLY STATE WEATHER ROUNDUP
NATIONAL WEATHER SERVICE MEMPHIS TN
1200 PM CST WED MAR 04 2015

TNZ002-004-019-021-049-052-054-088>092-041900-
WEST TENNESSEE

CITY           SKY/WX    TMP DP  RH WIND       PRES   REMARKS
MEMPHIS INTL   RAIN      40  37  89 N15G22    29.98R VSB 3/4 WCI  32
NWS MEMPHIS      N/A     40 N/A N/A MISG        N/A
JACKSON        CLOUDY    42  39  89 N22G28    29.96R FOG
DYERSBURG      CLOUDY    36  23  60 N13G22    30.05S WCI  27
UNION CITY     CLOUDY    34  34 100 N16       30.04R WCI  23
PARIS          CLOUDY    34  34 100 N16       30.00S WCI  23
SAVANNAH       CLOUDY    54  54 100 N12       29.89S
$$

TNZ008-025-027-028-033-062-065-066-041900-
NORTH MIDDLE TENNESSEE

CITY           SKY/WX    TMP DP  RH WIND       PRES   REMARKS
NASHVILLE      CLOUDY    47  45  93 N12       29.94F
CLARKSVILLE    LGT SNOW  38  36  92 N18G26    30.00F FOG     WCI  28
SMYRNA         LGT RAIN  48  47  97 N12       29.94S FOG
COOKEVILLE     CLOUDY    52  52 100 VRB5      29.88F
CROSSVILLE     CLOUDY    63  59  87 S9        29.88F
$$

TNZ061-075-076-078-094-096-097-041900-
SOUTH MIDDLE TENNESSEE

CITY           SKY/WX    TMP DP  RH WIND       PRES   REMARKS
FAYETTEVILLE   CLOUDY    66  63  88 SW20        N/A
TULLAHOMA      CLOUDY    64  61  88 SW16      29.88F
WINCHESTER     CLOUDY    70  61  73 SW14      29.89F
MCMINNVILLE    CLOUDY    61  61 100 NW10      29.89R
COLUMBIA       CLOUDY   N/A N/A N/A N7        29.89S
SHELBYVILLE    CLOUDY    54  54 100 N9        29.90F
$$

TNZ017-018-042-046-047-041900-
NORTHEAST TENNESSEE

CITY           SKY/WX    TMP DP  RH WIND       PRES   REMARKS
TRI CITIES     CLOUDY    65  56  72 W12G25    29.87S
ELIZABETHTON   MOCLDY    72  55  56 W12       29.86F
$$

TNZ012-013-036-069-073-074-041900-
CENTRAL EAST TENNESSEE

CITY           SKY/WX    TMP DP  RH WIND       PRES   REMARKS
KNOXVILLE      CLOUDY    70  59  68 SW23G33   29.89S
OAK RIDGE      LGT RAIN  66  60  81 SW10G21   29.88F
GATLINBURG     CLOUDY    72  55  56 SW17      29.88R
MORRISTOWN     MOCLDY    68  57  68 SW28G37   29.87F
$$

TNZ083-085-099-041900-
SOUTHEAST TENNESSEE

CITY           SKY/WX    TMP DP  RH WIND       PRES   REMARKS
CHATTANOOGA    PTSUNNY   70  60  70 S17G36    29.91F
$$

SKY/WX REPORTED AS FAIR MEANS FEW OR NO CLOUDS BELOW
12 THOUSAND FEET.



USA.gov is the U.S. government's official web portal to all federal, state and local government web resources and services.